Regional Weather Roundup
Issued by NWS

Home | Current Version | Previous Version | Graphics & Text | Print | Product List | Glossary On
Versions: 1 2 3 4 5 6 7 8 9 10 11 12 13 14 15 16 17 18 19 20 21 22 23 24 25 26 27 28 29 30 31 32 33 34 35 36 37 38 39 40 41 42 43 44 45 46 47 48 49 50
000
ASUS43 KIND 180259
RWRIN

WEATHER ROUNDUP FOR INDIANA
NATIONAL WEATHER SERVICE INDIANAPOLIS IN
1000 PM EST WED JAN 17 2018

NOTE: "FAIR" INDICATES FEW OR NO CLOUDS BELOW 12,000 FEET WITH NO
SIGNIFICANT WEATHER AND/OR OBSTRUCTIONS TO VISIBILITY.

* - STATION DOES NOT REPORT WEATHER SUCH AS PRECIPITATION OR FOG.

+ - STATION NOT QUALITY CONTROLLED BY THE NATIONAL WEATHER SERVICE.
    USE DATA WITH CAUTION...ESPECIALLY DEWPOINT AND RELATIVE
    HUMIDITY OBSERVATIONS.

INZ001>003-010>013-019-020-180400-
NORTHWEST INDIANA

CITY           SKY/WX    TMP DP  RH WIND       PRES   REMARKS
GARY /AIRPORT/ PTCLDY    18   9  68 SW20G32   30.31F WCI   1
KNOX *+        FAIR      14  10  85 SW15      30.34F WCI  -1
MONTICELLO +   FAIR      13   7  79 SW14      30.38F WCI  -3

$$

LMZ046-743>745-180400-
SOUTHERN LAKE MICHIGAN

STATION/POSITION TIME  TEMP    WIND        PRES    WAVE
                       AIR SEA DIR/SP/G            HT
                 (UTC) (F)     (DEG/KT/KT) (MB)    (FT)
BURNS HARBOR     0240   16     220/ 18/ 24 1026.4F
MICHIGAN CITY    0230   16     200/ 19/ 24   N/A

$$

INZ004-005-014>016-021>024-180400-
NORTH CENTRAL INDIANA

CITY           SKY/WX    TMP DP  RH WIND       PRES   REMARKS
GOSHEN         FAIR      14   8  77 SW20G31   30.30F WCI  -3
PERU/GRISSOM   MOCLDY    11   8  87 SW14      30.36F WCI  -5
SOUTH BEND     FAIR      13   8  81 SW18G26   30.29F WCI  -4

$$

INZ006>009-017-018-025>027-180400-
NORTHEAST INDIANA

CITY           SKY/WX    TMP DP  RH WIND       PRES   REMARKS
FORT WAYNE     FAIR      13   7  77 SW15      30.35F WCI  -3
KENDALLVILLE + FAIR      13   8  79 SW14      30.29F WCI  -2

$$

INZ028-029-035-036-043>045-051>053-180400-
WEST CENTRAL INDIANA

CITY           SKY/WX    TMP DP  RH WIND       PRES   REMARKS
GREENCASTLE +  FAIR      12   5  73 SW5       30.45F WCI   4
LAFAYETTE      FAIR      12   7  80 SW9       30.41F WCI   0
TERRE HAUTE    FAIR      12   5  73 SW10      30.48F WCI  -1

$$

INZ030>032-037>040-046>048-054>057-064-065-180400-
CENTRAL INDIANA

CITY           SKY/WX    TMP DP  RH WIND       PRES   REMARKS
COLUMBUS       CLEAR     10   3  72 SW6       30.49F WCI   1
INDIANAPOLIS   FAIR      10   5  80 SW14      30.44F WCI  -6
-EAGLE CREEK   FAIR      11   4  73 SW7       30.43F WCI   0
MT COMFORT *+  FAIR      10   9  92 SW9       30.42F WCI  -2
SHELBYVILLE    FAIR      12   4  70 SW12      30.45F WCI  -2

$$

INZ033-034-041-042-049-050-058-059-180400-
EAST CENTRAL INDIANA

CITY           SKY/WX    TMP DP  RH WIND       PRES   REMARKS
MUNCIE         FAIR      15   7  70 SW10      30.37F WCI   2
RICHMOND +     FAIR      12   9  85 SW10      30.40F WCI  -1

$$

INZ060-061-067>069-081>083-085>088-180400-
SOUTHWEST INDIANA

CITY           SKY/WX    TMP DP  RH WIND       PRES   REMARKS
EVANSVILLE     FAIR       9   7  92 SW3       30.56F
HUNTINGBURG +  FAIR       6   3  87 S5        30.55F WCI  -3

$$

INZ062-063-066-070>080-084-089>092-180400-
SOUTH CENTRAL AND SOUTHEAST INDIANA

CITY           SKY/WX    TMP DP  RH WIND       PRES   REMARKS
BLOOMINGTON    FAIR       8   2  76 SW8       30.48F WCI  -4
FRENCH LICK *+ FAIR      10   3  72 CALM      30.52S
MADISON *+     FAIR      12   9  85 SW3       30.50F
SEYMOUR +      FAIR      12   5  73 W6        30.51F WCI   3

$$





USA.gov is the U.S. government's official web portal to all federal, state and local government web resources and services.